Location: Dumpton Point
(51.3500°N, 1.4433°E)
Time: 23:32:46
(UTC+00:00)

NOSS 3-4 (C) - Pass Details

Date: 09 April 2020
Orbit: 897 x 1316 km, 63.4° (Epoch: 27 May)

Event Time Altitude Azimuth Distance (km) Brightness Sun altitude
Rises 19:23:48 0° 314° (NW) 3,804 8.1 -7.1°
Reaches altitude 10° 19:26:20 10° 312° (NW) 2,904 7.4 -7.5°
Maximum altitude 19:33:10 63° 233° (SW) 1,270 4.3 -8.5°
Drops below altitude 10° 19:40:41 10° 155° (SSE) 3,188 5.7 -9.5°
Enters shadow 19:42:39 - 153° (SSE) 3,866 6.1 -9.8°
